Location: *
(53.9002°N, 27.5624°E)
Time: 12:45:30
(UTC+00:00)

Cosmos 1408 Rocket - Pass Details

Date: 12 November 2019
Orbit: 602 x 630 km, 82.6° (Epoch: 05 December)

Event Time Altitude Azimuth Distance (km) Brightness Sun altitude
Rises 15:07:36 0° 347° (NNW) 2,896 6.9 -7.7°
Reaches altitude 10° 15:09:49 10° 346° (NNW) 1,990 6.1 -8.0°
Maximum altitude 15:14:13 76° 262° (W) 646 3.8 -8.6°
Drops below altitude 10° 15:18:38 10° 177° (S) 1,991 6.4 -9.2°
Sets 15:20:51 0° 176° (S) 2,897 7.2 -9.5°
